St Catherine Internationa, Egypt

4:28 PM EET on September 19, 2017 (GMT +0200)
St Catherine Internationa

Weather History for HESC - August, 2014

Change the Weather History Date:

Saturday, August 9, 2014

  Actual Average Record
Temperature  
Mean Temperature 74 °F -  
Max Temperature 87 °F - - ()
Min Temperature 62 °F - - ()
Cooling Degree Days 10    
Growing Degree Days 24 (Base 50)    
Moisture  
Dew Point 52 °F    
Average Humidity 47    
Maximum Humidity 77    
Minimum Humidity 29    
Precipitation  
Precipitation 0.00 in - - ()
Sea Level Pressure  
Sea Level Pressure 30.07 in    
Wind  
Wind Speed 6 mph ()    
Max Wind Speed 17 mph    
Max Gust Speed -    
T = Trace of Precipitation, MM = Missing Value Source: Averaged Metar Reports

Daily Weather History Graph

Daily Weather History Graph

Search for Another Location

Airport or City:

Trip Planner

Search our weather history database for the weather conditions in past years. The results will help you decide how hot, cold, wet, or windy it might be!

Date:

Astronomy

Aug. 09, 2014 Rise Set
Actual Time 6:09 AM EEST 7:28 PM EEST
Civil Twilight 5:44 AM EEST 7:53 PM EEST
Nautical Twilight 5:14 AM EEST 8:23 PM EEST
Astronomical Twilight 4:43 AM EEST 8:54 PM EEST
Moon 6:14 PM EEST (8/9) 4:27 AM EEST (8/9)
Length of Visible Light 14h 09m
Length of Day
13h 19m
Waxing Gibbous, 97% of the Moon is Illuminated
Aug 9
Waxing Gibbous
Aug 10
Full
Aug 17
Last Quarter
Aug 25
New
Sep 2
First Quarter

Hourly Weather History & Observations

Time (EEST) Temp. Heat Index Dew Point Humidity Pressure Visibility Wind Dir Wind Speed Gust Speed Precip Events Conditions
12:00 AM 71.6 °F - 48.2 °F 43% 30.09 in - NNW 6.9 mph - N/A   Clear
1:00 AM 69.8 °F - 53.6 °F 56% 30.09 in - NNW 5.8 mph - N/A   Clear
2:00 AM 68.0 °F - 57.2 °F 68% 30.12 in - North 5.8 mph - N/A   Clear
3:00 AM 66.2 °F - 57.2 °F 73% 30.09 in - Calm Calm - N/A   Clear
4:00 AM 66.2 °F - 57.2 °F 73% 30.09 in - Calm Calm - N/A   Clear
5:00 AM 64.4 °F - 57.2 °F 77% 30.09 in - Calm Calm - N/A   Clear
6:00 AM 64.4 °F - 53.6 °F 68% 30.06 in - West 11.5 mph - N/A   Clear
7:00 AM 62.6 °F - 51.8 °F 68% 30.06 in - West 9.2 mph - N/A   Clear
8:00 AM 69.8 °F - 53.6 °F 56% 30.09 in - WNW 8.1 mph - N/A   Clear
9:00 AM 77.0 °F - 51.8 °F 41% 30.09 in - Calm Calm - N/A   Clear
10:00 AM 77.0 °F - 51.8 °F 41% 30.09 in - Calm Calm - N/A   Clear
11:00 AM 80.6 °F - 51.8 °F 37% 30.09 in - Calm Calm - N/A   Clear
12:00 PM 84.2 °F - 51.8 °F 33% 30.06 in - NE 9.2 mph - N/A   Clear
1:00 PM 84.2 °F - 51.8 °F 33% 30.06 in - NNE 10.4 mph - N/A   Clear
2:00 PM 86.0 °F - 51.8 °F 31% 30.06 in - NNE 11.5 mph - N/A   Clear
3:00 PM 87.8 °F - 51.8 °F 29% 30.06 in - ENE 9.2 mph - N/A   Clear
4:00 PM 87.8 °F 85.7 °F 53.6 °F 31% 30.04 in - NE 17.3 mph - N/A   Clear
5:00 PM 86.0 °F - 51.8 °F 31% 30.04 in - NNE 11.5 mph - N/A   Clear
6:00 PM 86.0 °F 84.2 °F 53.6 °F 33% 30.04 in - NNE 9.2 mph - N/A   Clear
8:00 PM 78.8 °F - 46.4 °F 32% 30.04 in - North 11.5 mph - N/A   Clear
9:00 PM 75.2 °F - 46.4 °F 36% 30.04 in - North 10.4 mph - N/A   Clear
10:00 PM 73.4 °F - 48.2 °F 41% 30.06 in - North 5.8 mph - N/A   Clear
11:00 PM 71.6 °F - 51.8 °F 50% 30.06 in - NNW 5.8 mph - N/A   Clear